owner,sensor,date,latitude,longitude,vertical_datum,wind_speed,wind_to_direction,wind_speed_of_gust,qcFlag 
TCOON,ioos:station:TCOON:524:1,2017-12-01T00:00:00Z,29.8672,-93.9310,0.0,2.6,351.0,3.2,'11111222,11111222,11111222' 
TCOON,ioos:station:TCOON:524:1,2017-12-01T00:06:00Z,29.8672,-93.9310,0.0,3.0,4.0,3.7,'11111222,11111222,11111222' 
TCOON,ioos:station:TCOON:524:1,2017-12-01T00:12:00Z,29.8672,-93.9310,0.0,2.8,7.0,3.8,'11111222,11111222,11111222' 
TCOON,ioos:station:TCOON:524:1,2017-12-01T00:18:00Z,29.8672,-93.9310,0.0,2.8,7.0,3.8,'1111122,1111122,1111122' 
TCOON,ioos:station:TCOON:524:1,2017-12-01T00:24:00Z,29.8672,-93.9310,0.0,1.9,3.0,2.7,'11111222,11111222,11111222' 
TCOON,ioos:station:TCOON:524:1,2017-12-01T00:30:00Z,29.8672,-93.9310,0.0,1.4,347.0,2.0,'11111222,11111222,11111222' 
TCOON,ioos:station:TCOON:524:1,2017-12-01T00:36:00Z,29.8672,-93.9310,0.0,1.1,342.0,1.9,'11111222,11111222,11111222' 
TCOON,ioos:station:TCOON:524:1,2017-12-01T00:42:00Z,29.8672,-93.9310,0.0,1.4,357.0,1.9,'11111222,11111222,11111222' 
TCOON,ioos:station:TCOON:524:1,2017-12-01T00:48:00Z,29.8672,-93.9310,0.0,1.2,5.0,1.5,'11111222,11111222,11111222' 
TCOON,ioos:station:TCOON:524:1,2017-12-01T00:54:00Z,29.8672,-93.9310,0.0,1.4,11.0,1.7,'11111222,11111222,11111222' 
TCOON,ioos:station:TCOON:524:1,2017-12-01T01:00:00Z,29.8672,-93.9310,0.0,1.5,356.0,1.7,'11111222,11111222,11111222' 
TCOON,ioos:station:TCOON:524:1,2017-12-01T01:06:00Z,29.8672,-93.9310,0.0,2.6,347.0,2.9,'11111222,11111222,11111222' 
TCOON,ioos:station:TCOON:524:1,2017-12-01T01:12:00Z,29.8672,-93.9310,0.0,2.5,354.0,3.5,'11111222,11111222,11111222' 
TCOON,ioos:station:TCOON:524:1,2017-12-01T01:18:00Z,29.8672,-93.9310,0.0,2.5,354.0,3.5,'1111122,1111122,1111122' 
TCOON,ioos:station:TCOON:524:1,2017-12-01T01:24:00Z,29.8672,-93.9310,0.0,1.8,357.0,2.2,'11111222,11111222,11111222' 
TCOON,ioos:station:TCOON:524:1,2017-12-01T01:30:00Z,29.8672,-93.9310,0.0,1.6,342.0,2.0,'11111222,11111222,11111222' 
TCOON,ioos:station:TCOON:524:1,2017-12-01T01:36:00Z,29.8672,-93.9310,0.0,2.6,349.0,3.2,'11111222,11111222,11111222' 
TCOON,ioos:station:TCOON:524:1,2017-12-01T01:42:00Z,29.8672,-93.9310,0.0,2.1,347.0,2.8,'11111222,11111222,11111222' 
TCOON,ioos:station:TCOON:524:1,2017-12-01T01:48:00Z,29.8672,-93.9310,0.0,2.1,345.0,2.8,'11111222,11111222,11111222' 
TCOON,ioos:station:TCOON:524:1,2017-12-01T01:54:00Z,29.8672,-93.9310,0.0,1.9,355.0,2.6,'11111222,11111222,11111222' 
TCOON,ioos:station:TCOON:524:1,2017-12-01T02:00:00Z,29.8672,-93.9310,0.0,2.2,352.0,2.8,'11111222,11111222,11111222' 
TCOON,ioos:station:TCOON:524:1,2017-12-01T02:06:00Z,29.8672,-93.9310,0.0,2.4,345.0,3.1,'11111222,11111222,11111222' 
TCOON,ioos:station:TCOON:524:1,2017-12-01T02:12:00Z,29.8672,-93.9310,0.0,2.0,349.0,2.9,'11111222,11111222,11111222' 
TCOON,ioos:station:TCOON:524:1,2017-12-01T02:18:00Z,29.8672,-93.9310,0.0,2.0,349.0,2.9,'1111122,1111122,1111122' 
TCOON,ioos:station:TCOON:524:1,2017-12-01T02:24:00Z,29.8672,-93.9310,0.0,2.7,348.0,3.3,'11111222,11111222,11111222' 
TCOON,ioos:station:TCOON:524:1,2017-12-01T02:30:00Z,29.8672,-93.9310,0.0,3.3,343.0,3.7,'11111222,11111222,11111222' 
TCOON,ioos:station:TCOON:524:1,2017-12-01T02:36:00Z,29.8672,-93.9310,0.0,3.3,344.0,4.2,'11111222,11111222,11111222' 
TCOON,ioos:station:TCOON:524:1,2017-12-01T02:42:00Z,29.8672,-93.9310,0.0,2.9,351.0,4.1,'11111222,11111222,11111222' 
TCOON,ioos:station:TCOON:524:1,2017-12-01T02:48:00Z,29.8672,-93.9310,0.0,2.5,352.0,3.9,'11111222,11111222,11111222' 
TCOON,ioos:station:TCOON:524:1,2017-12-01T02:54:00Z,29.8672,-93.9310,0.0,2.0,12.0,2.7,'11111222,11111222,11111222' 
TCOON,ioos:station:TCOON:524:1,2017-12-01T03:00:00Z,29.8672,-93.9310,0.0,1.8,9.0,2.5,'11111222,11111222,11111222' 
TCOON,ioos:station:TCOON:524:1,2017-12-01T03:06:00Z,29.8672,-93.9310,0.0,1.9,6.0,2.4,'11111222,11111222,11111222' 
TCOON,ioos:station:TCOON:524:1,2017-12-01T03:12:00Z,29.8672,-93.9310,0.0,2.5,8.0,3.1,'11111222,11111222,11111222' 
TCOON,ioos:station:TCOON:524:1,2017-12-01T03:18:00Z,29.8672,-93.9310,0.0,2.5,8.0,3.1,'1111122,1111122,1111122' 
TCOON,ioos:station:TCOON:524:1,2017-12-01T03:24:00Z,29.8672,-93.9310,0.0,2.6,9.0,3.9,'11111222,11111222,11111222' 
TCOON,ioos:station:TCOON:524:1,2017-12-01T03:30:00Z,29.8672,-93.9310,0.0,2.3,9.0,2.8,'11111222,11111222,11111222' 
TCOON,ioos:station:TCOON:524:1,2017-12-01T03:36:00Z,29.8672,-93.9310,0.0,2.1,15.0,2.9,'11111222,11111222,11111222' 
TCOON,ioos:station:TCOON:524:1,2017-12-01T03:42:00Z,29.8672,-93.9310,0.0,1.9,8.0,2.4,'11111222,11111222,11111222' 
TCOON,ioos:station:TCOON:524:1,2017-12-01T03:48:00Z,29.8672,-93.9310,0.0,1.7,9.0,2.2,'11111222,11111222,11111222' 
TCOON,ioos:station:TCOON:524:1,2017-12-01T03:54:00Z,29.8672,-93.9310,0.0,1.6,7.0,2.2,'11111222,11111222,11111222' 
TCOON,ioos:station:TCOON:524:1,2017-12-01T04:00:00Z,29.8672,-93.9310,0.0,1.5,357.0,2.0,'11111222,11111222,11111222' 
TCOON,ioos:station:TCOON:524:1,2017-12-01T04:06:00Z,29.8672,-93.9310,0.0,1.6,10.0,1.9,'11111222,11111222,11111222' 
TCOON,ioos:station:TCOON:524:1,2017-12-01T04:12:00Z,29.8672,-93.9310,0.0,1.1,11.0,1.5,'11111222,11111222,11111222' 
TCOON,ioos:station:TCOON:524:1,2017-12-01T04:18:00Z,29.8672,-93.9310,0.0,1.1,11.0,1.5,'1111122,1111122,1111122' 
TCOON,ioos:station:TCOON:524:1,2017-12-01T04:24:00Z,29.8672,-93.9310,0.0,1.5,20.0,2.2,'11111222,11111222,11111222' 
TCOON,ioos:station:TCOON:524:1,2017-12-01T04:30:00Z,29.8672,-93.9310,0.0,1.6,10.0,2.1,'11111222,11111222,11111222' 
TCOON,ioos:station:TCOON:524:1,2017-12-01T04:36:00Z,29.8672,-93.9310,0.0,1.8,3.0,2.2,'11111222,11111222,11111222' 
TCOON,ioos:station:TCOON:524:1,2017-12-01T04:42:00Z,29.8672,-93.9310,0.0,1.9,0.0,2.5,'11111222,11111222,11111222' 
TCOON,ioos:station:TCOON:524:1,2017-12-01T04:48:00Z,29.8672,-93.9310,0.0,2.1,6.0,2.8,'11111222,11111222,11111222' 
TCOON,ioos:station:TCOON:524:1,2017-12-01T04:54:00Z,29.8672,-93.9310,0.0,1.5,6.0,2.2,'11111222,11111222,11111222' 
TCOON,ioos:station:TCOON:524:1,2017-12-01T05:00:00Z,29.8672,-93.9310,0.0,1.7,2.0,1.9,'11111222,11111222,11111222' 
TCOON,ioos:station:TCOON:524:1,2017-12-01T05:06:00Z,29.8672,-93.9310,0.0,2.1,2.0,2.4,'11111222,11111222,11111222' 
TCOON,ioos:station:TCOON:524:1,2017-12-01T05:12:00Z,29.8672,-93.9310,0.0,2.1,8.0,2.4,'11111222,11111222,11111222' 
TCOON,ioos:station:TCOON:524:1,2017-12-01T05:18:00Z,29.8672,-93.9310,0.0,2.1,8.0,2.4,'1111122,1111122,1111122' 
TCOON,ioos:station:TCOON:524:1,2017-12-01T05:24:00Z,29.8672,-93.9310,0.0,2.0,12.0,2.6,'11111222,11111222,11111222' 
TCOON,ioos:station:TCOON:524:1,2017-12-01T05:30:00Z,29.8672,-93.9310,0.0,2.4,9.0,2.7,'11111222,11111222,11111222' 
TCOON,ioos:station:TCOON:524:1,2017-12-01T05:36:00Z,29.8672,-93.9310,0.0,1.8,11.0,2.9,'11111222,11111222,11111222' 
TCOON,ioos:station:TCOON:524:1,2017-12-01T05:42:00Z,29.8672,-93.9310,0.0,1.5,2.0,1.9,'11111222,11111222,11111222' 
TCOON,ioos:station:TCOON:524:1,2017-12-01T05:48:00Z,29.8672,-93.9310,0.0,1.8,360.0,2.1,'11111222,11144222,11111222' 
TCOON,ioos:station:TCOON:524:1,2017-12-01T05:54:00Z,29.8672,-93.9310,0.0,1.9,6.0,2.2,'11111222,11111222,11111222' 
TCOON,ioos:station:TCOON:524:1,2017-12-01T06:00:00Z,29.8672,-93.9310,0.0,2.5,9.0,2.9,'11111222,11111222,11111222' 
TCOON,ioos:station:TCOON:524:1,2017-12-01T06:06:00Z,29.8672,-93.9310,0.0,2.5,7.0,3.0,'11111222,11111222,11111222' 
TCOON,ioos:station:TCOON:524:1,2017-12-01T06:12:00Z,29.8672,-93.9310,0.0,2.1,9.0,2.7,'11111222,11111222,11111222' 
TCOON,ioos:station:TCOON:524:1,2017-12-01T06:18:00Z,29.8672,-93.9310,0.0,2.1,9.0,2.7,'1111122,1111122,1111122' 
TCOON,ioos:station:TCOON:524:1,2017-12-01T06:24:00Z,29.8672,-93.9310,0.0,2.0,4.0,2.4,'11111222,11111222,11111222' 
TCOON,ioos:station:TCOON:524:1,2017-12-01T06:30:00Z,29.8672,-93.9310,0.0,2.1,7.0,2.5,'11111222,11111222,11111222' 
TCOON,ioos:station:TCOON:524:1,2017-12-01T06:36:00Z,29.8672,-93.9310,0.0,2.1,1.0,2.9,'11111222,11111222,11111222' 
TCOON,ioos:station:TCOON:524:1,2017-12-01T06:42:00Z,29.8672,-93.9310,0.0,1.9,4.0,2.3,'11111222,11111222,11111222' 
TCOON,ioos:station:TCOON:524:1,2017-12-01T06:48:00Z,29.8672,-93.9310,0.0,2.0,6.0,2.3,'11111222,11111222,11111222' 
TCOON,ioos:station:TCOON:524:1,2017-12-01T06:54:00Z,29.8672,-93.9310,0.0,2.0,7.0,2.2,'11111222,11111222,11111222' 
TCOON,ioos:station:TCOON:524:1,2017-12-01T07:00:00Z,29.8672,-93.9310,0.0,2.1,4.0,2.5,'11111222,11111222,11111222' 
TCOON,ioos:station:TCOON:524:1,2017-12-01T07:06:00Z,29.8672,-93.9310,0.0,2.0,6.0,2.5,'11111222,11111222,11111222' 
TCOON,ioos:station:TCOON:524:1,2017-12-01T07:12:00Z,29.8672,-93.9310,0.0,2.0,1.0,2.5,'11111222,11111222,11111222' 
TCOON,ioos:station:TCOON:524:1,2017-12-01T07:18:00Z,29.8672,-93.9310,0.0,2.0,1.0,2.5,'1111122,1111122,1111122' 
TCOON,ioos:station:TCOON:524:1,2017-12-01T07:24:00Z,29.8672,-93.9310,0.0,2.3,5.0,2.7,'11111222,11111222,11111222' 
TCOON,ioos:station:TCOON:524:1,2017-12-01T07:30:00Z,29.8672,-93.9310,0.0,2.2,5.0,3.1,'11111222,11111222,11111222' 
TCOON,ioos:station:TCOON:524:1,2017-12-01T07:36:00Z,29.8672,-93.9310,0.0,2.4,2.0,3.0,'11111222,11111222,11111222' 
TCOON,ioos:station:TCOON:524:1,2017-12-01T07:42:00Z,29.8672,-93.9310,0.0,2.4,1.0,3.2,'11111222,11111222,11111222' 
TCOON,ioos:station:TCOON:524:1,2017-12-01T07:48:00Z,29.8672,-93.9310,0.0,2.2,3.0,2.7,'11111222,11111222,11111222' 
TCOON,ioos:station:TCOON:524:1,2017-12-01T07:54:00Z,29.8672,-93.9310,0.0,1.9,4.0,2.5,'11111222,11111222,11111222' 
TCOON,ioos:station:TCOON:524:1,2017-12-01T08:00:00Z,29.8672,-93.9310,0.0,2.3,2.0,2.6,'11111222,11111222,11111222' 
TCOON,ioos:station:TCOON:524:1,2017-12-01T08:06:00Z,29.8672,-93.9310,0.0,2.1,4.0,2.6,'11111222,11111222,11111222' 
TCOON,ioos:station:TCOON:524:1,2017-12-01T08:12:00Z,29.8672,-93.9310,0.0,2.0,7.0,2.4,'11111222,11111222,11111222' 
TCOON,ioos:station:TCOON:524:1,2017-12-01T08:18:00Z,29.8672,-93.9310,0.0,2.0,7.0,2.4,'1111122,1111122,1111122' 
TCOON,ioos:station:TCOON:524:1,2017-12-01T08:24:00Z,29.8672,-93.9310,0.0,2.2,5.0,2.8,'11111222,11111222,11111222' 
TCOON,ioos:station:TCOON:524:1,2017-12-01T08:30:00Z,29.8672,-93.9310,0.0,2.0,19.0,2.9,'11111222,11111222,11111222' 
TCOON,ioos:station:TCOON:524:1,2017-12-01T08:36:00Z,29.8672,-93.9310,0.0,2.8,15.0,3.5,'11111222,11111222,11111222' 
TCOON,ioos:station:TCOON:524:1,2017-12-01T08:42:00Z,29.8672,-93.9310,0.0,2.7,20.0,3.4,'11111222,11111222,11111222' 
TCOON,ioos:station:TCOON:524:1,2017-12-01T08:48:00Z,29.8672,-93.9310,0.0,2.8,34.0,3.9,'11111222,11111222,11111222' 
TCOON,ioos:station:TCOON:524:1,2017-12-01T08:54:00Z,29.8672,-93.9310,0.0,2.0,40.0,4.2,'11111222,11111222,11111222' 
TCOON,ioos:station:TCOON:524:1,2017-12-01T09:00:00Z,29.8672,-93.9310,0.0,2.1,38.0,4.2,'11111222,11111222,11111222' 
TCOON,ioos:station:TCOON:524:1,2017-12-01T09:06:00Z,29.8672,-93.9310,0.0,2.2,42.0,4.0,'11111222,11111222,11111222' 
TCOON,ioos:station:TCOON:524:1,2017-12-01T09:12:00Z,29.8672,-93.9310,0.0,2.8,39.0,3.9,'11111222,11111222,11111222' 
TCOON,ioos:station:TCOON:524:1,2017-12-01T09:18:00Z,29.8672,-93.9310,0.0,2.8,39.0,3.9,'1111122,1111122,1111122' 
TCOON,ioos:station:TCOON:524:1,2017-12-01T09:24:00Z,29.8672,-93.9310,0.0,2.6,22.0,3.6,'11111222,11111222,11111222' 
TCOON,ioos:station:TCOON:524:1,2017-12-01T09:30:00Z,29.8672,-93.9310,0.0,3.0,19.0,3.9,'11111222,11111222,11111222' 
TCOON,ioos:station:TCOON:524:1,2017-12-01T09:36:00Z,29.8672,-93.9310,0.0,3.2,15.0,4.4,'11111222,11111222,11111222' 
TCOON,ioos:station:TCOON:524:1,2017-12-01T09:42:00Z,29.8672,-93.9310,0.0,2.1,14.0,3.3,'11111222,11111222,11111222' 
TCOON,ioos:station:TCOON:524:1,2017-12-01T09:48:00Z,29.8672,-93.9310,0.0,2.3,4.0,2.8,'11111222,11111222,11111222' 
TCOON,ioos:station:TCOON:524:1,2017-12-01T09:54:00Z,29.8672,-93.9310,0.0,2.2,3.0,2.9,'11111222,11111222,11111222' 
TCOON,ioos:station:TCOON:524:1,2017-12-01T10:00:00Z,29.8672,-93.9310,0.0,2.5,8.0,3.0,'11111222,11111222,11111222' 
TCOON,ioos:station:TCOON:524:1,2017-12-01T10:06:00Z,29.8672,-93.9310,0.0,2.4,6.0,3.3,'11111222,11111222,11111222' 
TCOON,ioos:station:TCOON:524:1,2017-12-01T10:12:00Z,29.8672,-93.9310,0.0,2.2,14.0,2.6,'11111222,11111222,11111222' 
TCOON,ioos:station:TCOON:524:1,2017-12-01T10:18:00Z,29.8672,-93.9310,0.0,2.2,14.0,2.6,'1111122,1111122,1111122' 
TCOON,ioos:station:TCOON:524:1,2017-12-01T10:24:00Z,29.8672,-93.9310,0.0,2.4,2.0,2.7,'11111222,11111222,11111222' 
TCOON,ioos:station:TCOON:524:1,2017-12-01T10:30:00Z,29.8672,-93.9310,0.0,2.2,9.0,2.8,'11111222,11111222,11111222' 
TCOON,ioos:station:TCOON:524:1,2017-12-01T10:36:00Z,29.8672,-93.9310,0.0,2.1,8.0,2.4,'11111222,11111222,11111222' 
TCOON,ioos:station:TCOON:524:1,2017-12-01T10:42:00Z,29.8672,-93.9310,0.0,2.1,15.0,2.6,'11111222,11111222,11111222' 
TCOON,ioos:station:TCOON:524:1,2017-12-01T10:48:00Z,29.8672,-93.9310,0.0,2.0,6.0,2.7,'11111222,11111222,11111222' 
TCOON,ioos:station:TCOON:524:1,2017-12-01T10:54:00Z,29.8672,-93.9310,0.0,1.4,11.0,2.4,'11111222,11111222,11111222' 
TCOON,ioos:station:TCOON:524:1,2017-12-01T11:00:00Z,29.8672,-93.9310,0.0,1.3,17.0,1.9,'11111222,11111222,11111222' 
TCOON,ioos:station:TCOON:524:1,2017-12-01T11:06:00Z,29.8672,-93.9310,0.0,1.8,17.0,2.4,'11111222,11111222,11111222' 
TCOON,ioos:station:TCOON:524:1,2017-12-01T11:12:00Z,29.8672,-93.9310,0.0,2.0,16.0,2.7,'11111222,11111222,11111222' 
TCOON,ioos:station:TCOON:524:1,2017-12-01T11:18:00Z,29.8672,-93.9310,0.0,2.0,16.0,2.7,'1111122,1111122,1111122' 
TCOON,ioos:station:TCOON:524:1,2017-12-01T11:24:00Z,29.8672,-93.9310,0.0,2.2,14.0,2.8,'11111222,11111222,11111222' 
TCOON,ioos:station:TCOON:524:1,2017-12-01T11:30:00Z,29.8672,-93.9310,0.0,1.8,16.0,2.6,'11111222,11111222,11111222' 
TCOON,ioos:station:TCOON:524:1,2017-12-01T11:36:00Z,29.8672,-93.9310,0.0,1.5,24.0,2.3,'11111222,11111222,11111222' 
TCOON,ioos:station:TCOON:524:1,2017-12-01T11:42:00Z,29.8672,-93.9310,0.0,1.4,22.0,2.3,'11111222,11111222,11111222' 
TCOON,ioos:station:TCOON:524:1,2017-12-01T11:48:00Z,29.8672,-93.9310,0.0,1.9,7.0,2.4,'11111222,11111222,11111222' 
TCOON,ioos:station:TCOON:524:1,2017-12-01T11:54:00Z,29.8672,-93.9310,0.0,1.0,35.0,2.4,'11111222,11111222,11111222' 
TCOON,ioos:station:TCOON:524:1,2017-12-01T12:00:00Z,29.8672,-93.9310,0.0,1.6,24.0,2.3,'11111222,11111222,11111222' 
TCOON,ioos:station:TCOON:524:1,2017-12-01T12:06:00Z,29.8672,-93.9310,0.0,1.5,23.0,2.1,'11111222,11111222,11111222' 
TCOON,ioos:station:TCOON:524:1,2017-12-01T12:12:00Z,29.8672,-93.9310,0.0,1.9,25.0,2.3,'11111222,11111222,11111222' 
TCOON,ioos:station:TCOON:524:1,2017-12-01T12:18:00Z,29.8672,-93.9310,0.0,1.9,25.0,2.3,'1111122,1111122,1111122' 
TCOON,ioos:station:TCOON:524:1,2017-12-01T12:24:00Z,29.8672,-93.9310,0.0,1.5,25.0,2.3,'11111222,11111222,11111222' 
TCOON,ioos:station:TCOON:524:1,2017-12-01T12:30:00Z,29.8672,-93.9310,0.0,1.3,32.0,2.1,'11111222,11111222,11111222' 
TCOON,ioos:station:TCOON:524:1,2017-12-01T12:36:00Z,29.8672,-93.9310,0.0,1.9,13.0,2.2,'11111222,11111222,11111222' 
TCOON,ioos:station:TCOON:524:1,2017-12-01T12:42:00Z,29.8672,-93.9310,0.0,2.3,5.0,2.6,'11111222,11111222,11111222' 
TCOON,ioos:station:TCOON:524:1,2017-12-01T12:48:00Z,29.8672,-93.9310,0.0,2.8,7.0,3.1,'11111222,11111222,11111222' 
TCOON,ioos:station:TCOON:524:1,2017-12-01T12:54:00Z,29.8672,-93.9310,0.0,2.6,9.0,3.3,'11111222,11111222,11111222' 
TCOON,ioos:station:TCOON:524:1,2017-12-01T13:00:00Z,29.8672,-93.9310,0.0,2.7,3.0,3.3,'11111222,11111222,11111222' 
TCOON,ioos:station:TCOON:524:1,2017-12-01T13:06:00Z,29.8672,-93.9310,0.0,2.7,6.0,3.3,'11111222,11111222,11111222' 
TCOON,ioos:station:TCOON:524:1,2017-12-01T13:12:00Z,29.8672,-93.9310,0.0,2.6,8.0,3.0,'11111222,11111222,11111222' 
TCOON,ioos:station:TCOON:524:1,2017-12-01T13:18:00Z,29.8672,-93.9310,0.0,2.6,8.0,3.0,'1111122,1111122,1111122' 
TCOON,ioos:station:TCOON:524:1,2017-12-01T13:24:00Z,29.8672,-93.9310,0.0,2.7,13.0,3.3,'11111222,11111222,11111222' 
TCOON,ioos:station:TCOON:524:1,2017-12-01T13:30:00Z,29.8672,-93.9310,0.0,2.4,13.0,3.5,'11111222,11111222,11111222' 
TCOON,ioos:station:TCOON:524:1,2017-12-01T13:36:00Z,29.8672,-93.9310,0.0,2.0,16.0,2.4,'11111222,11111222,11111222' 
TCOON,ioos:station:TCOON:524:1,2017-12-01T13:42:00Z,29.8672,-93.9310,0.0,2.0,18.0,2.6,'11111222,11111222,11111222' 
TCOON,ioos:station:TCOON:524:1,2017-12-01T13:48:00Z,29.8672,-93.9310,0.0,1.9,26.0,2.6,'11111222,11111222,11111222' 
TCOON,ioos:station:TCOON:524:1,2017-12-01T13:54:00Z,29.8672,-93.9310,0.0,2.4,15.0,2.7,'11111222,11111222,11111222' 
TCOON,ioos:station:TCOON:524:1,2017-12-01T14:00:00Z,29.8672,-93.9310,0.0,2.4,15.0,3.2,'11111222,11111222,11111222' 
TCOON,ioos:station:TCOON:524:1,2017-12-01T14:06:00Z,29.8672,-93.9310,0.0,2.4,22.0,3.1,'11111222,11111222,11111222' 
TCOON,ioos:station:TCOON:524:1,2017-12-01T14:12:00Z,29.8672,-93.9310,0.0,2.6,33.0,3.5,'11111222,11111222,11111222' 
TCOON,ioos:station:TCOON:524:1,2017-12-01T14:18:00Z,29.8672,-93.9310,0.0,2.6,33.0,3.5,'1111122,1111122,1111122' 
TCOON,ioos:station:TCOON:524:1,2017-12-01T14:24:00Z,29.8672,-93.9310,0.0,1.8,37.0,3.5,'11111222,11111222,11111222' 
TCOON,ioos:station:TCOON:524:1,2017-12-01T14:30:00Z,29.8672,-93.9310,0.0,1.7,43.0,2.7,'11111222,11111222,11111222' 
TCOON,ioos:station:TCOON:524:1,2017-12-01T14:36:00Z,29.8672,-93.9310,0.0,1.9,34.0,3.5,'11111222,11111222,11111222' 
TCOON,ioos:station:TCOON:524:1,2017-12-01T14:42:00Z,29.8672,-93.9310,0.0,2.2,31.0,3.5,'11111222,11111222,11111222' 
TCOON,ioos:station:TCOON:524:1,2017-12-01T14:48:00Z,29.8672,-93.9310,0.0,2.7,30.0,3.7,'11111222,11111222,11111222' 
TCOON,ioos:station:TCOON:524:1,2017-12-01T14:54:00Z,29.8672,-93.9310,0.0,3.0,33.0,3.7,'11111222,11111222,11111222' 
TCOON,ioos:station:TCOON:524:1,2017-12-01T15:00:00Z,29.8672,-93.9310,0.0,2.1,31.0,3.2,'11111222,11111222,11111222' 
TCOON,ioos:station:TCOON:524:1,2017-12-01T15:06:00Z,29.8672,-93.9310,0.0,2.8,27.0,3.5,'11111222,11111222,11111222' 
TCOON,ioos:station:TCOON:524:1,2017-12-01T15:12:00Z,29.8672,-93.9310,0.0,2.6,25.0,3.4,'11111222,11111222,11111222' 
TCOON,ioos:station:TCOON:524:1,2017-12-01T15:18:00Z,29.8672,-93.9310,0.0,2.6,25.0,3.4,'1111122,1111122,1111122' 
TCOON,ioos:station:TCOON:524:1,2017-12-01T15:24:00Z,29.8672,-93.9310,0.0,1.6,89.0,2.8,'11111222,11111222,11111222' 
TCOON,ioos:station:TCOON:524:1,2017-12-01T15:48:00Z,29.8672,-93.9310,0.0,1.9,83.0,2.7,'11111222,11111222,11111222' 
TCOON,ioos:station:TCOON:524:1,2017-12-01T15:54:00Z,29.8672,-93.9310,0.0,2.8,75.0,3.9,'11111222,11111222,11111222' 
TCOON,ioos:station:TCOON:524:1,2017-12-01T16:00:00Z,29.8672,-93.9310,0.0,1.7,63.0,3.8,'11111222,11111222,11111222' 
TCOON,ioos:station:TCOON:524:1,2017-12-01T16:06:00Z,29.8672,-93.9310,0.0,1.9,71.0,3.5,'11111222,11111222,11111222' 
TCOON,ioos:station:TCOON:524:1,2017-12-01T16:12:00Z,29.8672,-93.9310,0.0,1.6,82.0,3.1,'11111222,11111222,11111222' 
TCOON,ioos:station:TCOON:524:1,2017-12-01T16:18:00Z,29.8672,-93.9310,0.0,1.6,82.0,3.1,'1111122,1111122,1111122' 
TCOON,ioos:station:TCOON:524:1,2017-12-01T16:24:00Z,29.8672,-93.9310,0.0,2.2,86.0,3.5,'11111222,11111222,11111222' 
TCOON,ioos:station:TCOON:524:1,2017-12-01T16:30:00Z,29.8672,-93.9310,0.0,2.3,100.0,3.5,'11111222,11111222,11111222' 
TCOON,ioos:station:TCOON:524:1,2017-12-01T16:36:00Z,29.8672,-93.9310,0.0,1.9,96.0,2.9,'11111222,11111222,11111222' 
TCOON,ioos:station:TCOON:524:1,2017-12-01T16:42:00Z,29.8672,-93.9310,0.0,2.4,108.0,2.9,'11111222,11111222,11111222' 
TCOON,ioos:station:TCOON:524:1,2017-12-01T16:48:00Z,29.8672,-93.9310,0.0,2.1,103.0,3.1,'11111222,11111222,11111222' 
TCOON,ioos:station:TCOON:524:1,2017-12-01T16:54:00Z,29.8672,-93.9310,0.0,2.3,93.0,2.7,'11111222,11111222,11111222' 
TCOON,ioos:station:TCOON:524:1,2017-12-01T17:00:00Z,29.8672,-93.9310,0.0,2.2,86.0,2.9,'11111222,11111222,11111222' 
TCOON,ioos:station:TCOON:524:1,2017-12-01T17:06:00Z,29.8672,-93.9310,0.0,1.8,86.0,2.7,'11111222,11111222,11111222' 
TCOON,ioos:station:TCOON:524:1,2017-12-01T17:12:00Z,29.8672,-93.9310,0.0,2.2,90.0,2.7,'11111222,11111222,11111222' 
TCOON,ioos:station:TCOON:524:1,2017-12-01T17:18:00Z,29.8672,-93.9310,0.0,2.2,90.0,2.7,'1111122,1111122,1111122' 
TCOON,ioos:station:TCOON:524:1,2017-12-01T17:24:00Z,29.8672,-93.9310,0.0,2.7,110.0,3.3,'11111222,11111222,11111222' 
TCOON,ioos:station:TCOON:524:1,2017-12-01T17:30:00Z,29.8672,-93.9310,0.0,2.8,103.0,3.4,'11111222,11111222,11111222' 
TCOON,ioos:station:TCOON:524:1,2017-12-01T17:36:00Z,29.8672,-93.9310,0.0,1.5,113.0,2.8,'11111222,11111222,11111222' 
TCOON,ioos:station:TCOON:524:1,2017-12-01T17:42:00Z,29.8672,-93.9310,0.0,2.1,101.0,2.6,'11111222,11111222,11111222' 
TCOON,ioos:station:TCOON:524:1,2017-12-01T17:48:00Z,29.8672,-93.9310,0.0,2.3,92.0,2.7,'11111222,11111222,11111222' 
TCOON,ioos:station:TCOON:524:1,2017-12-01T17:54:00Z,29.8672,-93.9310,0.0,2.1,96.0,3.0,'11111222,11111222,11111222' 
TCOON,ioos:station:TCOON:524:1,2017-12-01T18:00:00Z,29.8672,-93.9310,0.0,2.5,112.0,3.0,'11111222,11111222,11111222' 
TCOON,ioos:station:TCOON:524:1,2017-12-01T18:06:00Z,29.8672,-93.9310,0.0,2.1,111.0,2.7,'11111222,11111222,11111222' 
TCOON,ioos:station:TCOON:524:1,2017-12-01T18:12:00Z,29.8672,-93.9310,0.0,2.6,96.0,3.1,'11111222,11111222,11111222' 
TCOON,ioos:station:TCOON:524:1,2017-12-01T18:18:00Z,29.8672,-93.9310,0.0,2.6,96.0,3.1,'1111122,1111122,1111122' 
TCOON,ioos:station:TCOON:524:1,2017-12-01T18:24:00Z,29.8672,-93.9310,0.0,2.5,108.0,3.6,'11111222,11111222,11111222' 
TCOON,ioos:station:TCOON:524:1,2017-12-01T18:30:00Z,29.8672,-93.9310,0.0,2.2,120.0,3.3,'11111222,11111222,11111222' 
TCOON,ioos:station:TCOON:524:1,2017-12-01T18:36:00Z,29.8672,-93.9310,0.0,2.7,139.0,3.4,'11111222,11111222,11111222' 
TCOON,ioos:station:TCOON:524:1,2017-12-01T18:42:00Z,29.8672,-93.9310,0.0,2.3,113.0,3.1,'11111222,11111222,11111222' 
TCOON,ioos:station:TCOON:524:1,2017-12-01T18:48:00Z,29.8672,-93.9310,0.0,1.9,110.0,3.5,'11111222,11111222,11111222' 
TCOON,ioos:station:TCOON:524:1,2017-12-01T18:54:00Z,29.8672,-93.9310,0.0,2.4,94.0,3.1,'11111222,11111222,11111222' 
TCOON,ioos:station:TCOON:524:1,2017-12-01T19:00:00Z,29.8672,-93.9310,0.0,2.8,103.0,3.6,'11111222,11111222,11111222' 
TCOON,ioos:station:TCOON:524:1,2017-12-01T19:06:00Z,29.8672,-93.9310,0.0,2.6,103.0,3.5,'11111222,11111222,11111222' 
TCOON,ioos:station:TCOON:524:1,2017-12-01T19:12:00Z,29.8672,-93.9310,0.0,3.0,100.0,3.4,'11111222,11111222,11111222' 
TCOON,ioos:station:TCOON:524:1,2017-12-01T19:18:00Z,29.8672,-93.9310,0.0,3.0,100.0,3.4,'1111122,1111122,1111122' 
TCOON,ioos:station:TCOON:524:1,2017-12-01T19:24:00Z,29.8672,-93.9310,0.0,2.7,94.0,3.3,'11111222,11111222,11111222' 
TCOON,ioos:station:TCOON:524:1,2017-12-01T19:30:00Z,29.8672,-93.9310,0.0,3.0,106.0,3.6,'11111222,11111222,11111222' 
TCOON,ioos:station:TCOON:524:1,2017-12-01T19:36:00Z,29.8672,-93.9310,0.0,2.8,102.0,3.3,'11111222,11111222,11111222' 
TCOON,ioos:station:TCOON:524:1,2017-12-01T19:42:00Z,29.8672,-93.9310,0.0,2.4,95.0,3.6,'11111222,11111222,11111222' 
TCOON,ioos:station:TCOON:524:1,2017-12-01T19:48:00Z,29.8672,-93.9310,0.0,2.5,103.0,3.3,'11111222,11111222,11111222' 
TCOON,ioos:station:TCOON:524:1,2017-12-01T19:54:00Z,29.8672,-93.9310,0.0,3.0,112.0,3.9,'11111222,11111222,11111222' 
TCOON,ioos:station:TCOON:524:1,2017-12-01T20:00:00Z,29.8672,-93.9310,0.0,2.7,108.0,4.1,'11111222,11111222,11111222' 
TCOON,ioos:station:TCOON:524:1,2017-12-01T20:06:00Z,29.8672,-93.9310,0.0,3.4,105.0,4.0,'11111222,11111222,11111222' 
TCOON,ioos:station:TCOON:524:1,2017-12-01T20:12:00Z,29.8672,-93.9310,0.0,2.5,114.0,3.7,'11111222,11111222,11111222' 
TCOON,ioos:station:TCOON:524:1,2017-12-01T20:18:00Z,29.8672,-93.9310,0.0,2.5,114.0,3.7,'1111122,1111122,1111122' 
TCOON,ioos:station:TCOON:524:1,2017-12-01T20:24:00Z,29.8672,-93.9310,0.0,1.7,106.0,2.6,'11111222,11111222,11111222' 
TCOON,ioos:station:TCOON:524:1,2017-12-01T20:30:00Z,29.8672,-93.9310,0.0,2.6,139.0,3.4,'11111222,11111222,11111222' 
TCOON,ioos:station:TCOON:524:1,2017-12-01T20:36:00Z,29.8672,-93.9310,0.0,1.8,117.0,3.0,'11111222,11111222,11111222' 
TCOON,ioos:station:TCOON:524:1,2017-12-01T20:42:00Z,29.8672,-93.9310,0.0,1.9,104.0,2.8,'11111222,11111222,11111222' 
TCOON,ioos:station:TCOON:524:1,2017-12-01T20:48:00Z,29.8672,-93.9310,0.0,1.9,102.0,3.0,'11111222,11111222,11111222' 